,,Stat6,,Stat2,,Stat8,,Stat9,,Stat10,,Wind1,,Wind1,
time,status,PA1M_AVG,status,PR1M_SUM,status,RH1M_AVG,status,SR1M_AVG,status,TA1M_AVG,status,W1dAve1m,status,W1sAve1m,
2005-10-18, 00:00:01,VALID,919.982,VALID,0,VALID,100,VALID,0.0679233,VALID,18.9614,VALID,119,VALID,0.207317,
2005-10-18, 00:01:01,VALID,919.986,VALID,0,VALID,100,VALID,0,VALID,18.9614,VALID,119,VALID,0.162153,
2005-10-18, 00:02:00,VALID,919.973,VALID,0,VALID,100,VALID,0.0169808,VALID,18.9623,VALID,119,VALID,0.25436,
2005-10-18, 00:03:00,VALID,919.969,VALID,0,VALID,100,VALID,-0.0679233,VALID,18.9206,VALID,119,VALID,0.298295,
2005-10-18, 00:04:00,VALID,919.967,VALID,0,VALID,100,VALID,-0.0849042,VALID,18.9215,VALID,119,VALID,0.0484375,
2005-10-18, 00:05:00,VALID,919.953,VALID,0,VALID,100,VALID,-0.0679233,VALID,18.9312,VALID,119,VALID,0,
2005-10-18, 00:06:00,VALID,919.95,VALID,0,VALID,100,VALID,-0.0509425,VALID,18.9208,VALID,119,VALID,0,
2005-10-18, 00:07:01,VALID,919.937,VALID,0,VALID,100,VALID,-0.101885,VALID,18.9211,VALID,119,VALID,0,
2005-10-18, 00:08:00,VALID,919.925,VALID,0,VALID,100,VALID,-0.0849042,VALID,18.9439,VALID,119,VALID,0,
2005-10-18, 00:09:00,VALID,919.92,VALID,0,VALID,100,VALID,-0.0849042,VALID,18.9437,VALID,119,VALID,0,
2005-10-18, 00:10:01,VALID,919.917,VALID,0,VALID,100,VALID,-0.0679233,VALID,18.9501,VALID,119,VALID,0,
2005-10-18, 00:11:00,VALID,919.918,VALID,0,VALID,100,VALID,-0.101885,VALID,18.9531,VALID,119,VALID,0,
2005-10-18, 00:12:01,VALID,919.928,VALID,0,VALID,100,VALID,-0.118866,VALID,18.9635,VALID,119,VALID,0.0800781,
2005-10-18, 00:13:00,VALID,919.927,VALID,0,VALID,100,VALID,-0.0849042,VALID,18.9764,VALID,119,VALID,0,
2005-10-18, 00:14:00,VALID,919.935,VALID,0,VALID,100,VALID,-0.0849042,VALID,19.009,VALID,119,VALID,0,
2005-10-18, 00:15:00,VALID,919.939,VALID,0,VALID,100,VALID,-0.0849042,VALID,18.9891,VALID,119,VALID,0.0348837,
2005-10-18, 00:16:00,VALID,919.94,VALID,0,VALID,100,VALID,-0.0169808,VALID,18.9794,VALID,119,VALID,0.0379724,
2005-10-18, 00:17:00,VALID,919.941,VALID,0,VALID,100,VALID,-0.0849042,VALID,18.9434,VALID,119,VALID,0.219131,
2005-10-18, 00:18:00,VALID,919.933,VALID,0,VALID,100,VALID,-0.0339617,VALID,18.9474,VALID,119,VALID,0.395312,
2005-10-18, 00:19:00,VALID,919.937,VALID,0,VALID,100,VALID,-0.0679233,VALID,18.9153,VALID,119,VALID,0.473586,
2005-10-18, 00:20:00,VALID,919.934,VALID,0,VALID,100,VALID,-0.0679233,VALID,18.8922,VALID,119,VALID,0.719778,
2005-10-18, 00:21:01,VALID,919.932,VALID,0,VALID,100,VALID,-0.0509425,VALID,18.9044,VALID,116,VALID,0.878239,
2005-10-18, 00:22:00,VALID,919.918,VALID,0,VALID,100,VALID,-0.101885,VALID,18.9049,VALID,102,VALID,0.852273,
2005-10-18, 00:23:00,VALID,919.921,VALID,0,VALID,100,VALID,-0.0849042,VALID,18.9022,VALID,90,VALID,0.681176,
2005-10-18, 00:24:01,VALID,919.914,VALID,0,VALID,100,VALID,-0.0679233,VALID,18.8788,VALID,93,VALID,0.772049,
2005-10-18, 00:25:00,VALID,919.895,VALID,0,VALID,100,VALID,-0.0679233,VALID,18.8694,VALID,109,VALID,0.554688,
2005-10-18, 00:26:00,VALID,919.888,VALID,0,VALID,100,VALID,-0.0509425,VALID,18.8696,VALID,114,VALID,0.251674,
2005-10-18, 00:27:00,VALID,919.867,VALID,0,VALID,100,VALID,-0.0679233,VALID,18.8791,VALID,129,VALID,0.482376,
2005-10-18, 00:28:00,VALID,919.855,VALID,0,VALID,100,VALID,-0.101885,VALID,18.8823,VALID,122,VALID,0.478338,
2005-10-18, 00:29:00,VALID,919.852,VALID,0,VALID,100,VALID,-0.0509425,VALID,18.892,VALID,108,VALID,0.419389,
2005-10-18, 00:30:00,VALID,919.834,VALID,0,VALID,100,VALID,-0.101885,VALID,18.8918,VALID,108,VALID,0.122713,
2005-10-18, 00:31:01,VALID,919.828,VALID,0,VALID,100,VALID,-0.0509425,VALID,18.8927,VALID,105,VALID,0.453303,
2005-10-18, 00:32:00,VALID,919.82,VALID,0,VALID,100,VALID,-0.0849042,VALID,18.8821,VALID,100,VALID,0.481585,
2005-10-18, 00:33:00,VALID,919.796,VALID,0,VALID,100,VALID,0.0169808,VALID,18.8945,VALID,103,VALID,0.843192,
2005-10-18, 00:34:00,VALID,919.785,VALID,0,VALID,100,VALID,0.0509425,VALID,18.8751,VALID,97,VALID,0.801153,
2005-10-18, 00:35:01,VALID,919.778,VALID,0,VALID,100,VALID,0.0169808,VALID,18.8744,VALID,115,VALID,0.681286,
2005-10-18, 00:36:00,VALID,919.776,VALID,0,VALID,100,VALID,0.0169808,VALID,18.8707,VALID,100,VALID,0.767721,
2005-10-18, 00:37:01,VALID,919.775,VALID,0,VALID,100,VALID,0.0339617,VALID,18.865,VALID,103,VALID,0.70476,
2005-10-18, 00:38:01,VALID,919.768,VALID,0,VALID,100,VALID,0.0339617,VALID,18.8583,VALID,88,VALID,0.882473,
2005-10-18, 00:39:01,VALID,919.757,VALID,0,VALID,100,VALID,0.0339617,VALID,18.8652,VALID,91,VALID,0.684152,
2005-10-18, 00:40:01,VALID,919.755,VALID,0,VALID,100,VALID,0.0849042,VALID,18.835,VALID,94,VALID,0.521577,
2005-10-18, 00:41:00,VALID,919.738,VALID,0,VALID,100,VALID,0.0509425,VALID,18.8352,VALID,97,VALID,0.551599,
2005-10-18, 00:42:01,VALID,919.731,VALID,0,VALID,100,VALID,0.0169808,VALID,18.8454,VALID,98,VALID,0.340701,
2005-10-18, 00:43:01,VALID,919.725,VALID,0,VALID,100,VALID,0.0169808,VALID,18.8518,VALID,99,VALID,0.352679,
2005-10-18, 00:44:00,VALID,919.71,VALID,0,VALID,100,VALID,0.0169808,VALID,18.8684,VALID,99,VALID,0.299782,
2005-10-18, 00:45:00,VALID,919.71,VALID,0,VALID,100,VALID,0.0339617,VALID,18.8747,VALID,101,VALID,0.333939,
2005-10-18, 00:46:00,VALID,919.692,VALID,0,VALID,100,VALID,0.0339617,VALID,18.8883,VALID,104,VALID,0.630632,
2005-10-18, 00:47:01,VALID,919.67,VALID,0,VALID,100,VALID,0.0169808,VALID,18.8846,VALID,108,VALID,0.820494,
2005-10-18, 00:48:01,VALID,919.663,VALID,0,VALID,100,VALID,-0.0679233,VALID,18.8759,VALID,94,VALID,0.85665,
2005-10-18, 00:49:01,VALID,919.658,VALID,0,VALID,100,VALID,-0.0339617,VALID,18.8722,VALID,71,VALID,0.690358,
2005-10-18, 00:50:01,VALID,919.652,VALID,0,VALID,100,VALID,-0.0679233,VALID,18.8922,VALID,73,VALID,0.652158,
2005-10-18, 00:51:00,VALID,919.619,VALID,0,VALID,100,VALID,-0.0679233,VALID,18.8788,VALID,82,VALID,0.631138,
2005-10-18, 00:52:00,VALID,919.607,VALID,0,VALID,100,VALID,-0.0849042,VALID,18.8788,VALID,95,VALID,0.529948,
2005-10-18, 00:53:00,VALID,919.581,VALID,0,VALID,100,VALID,-0.0679233,VALID,18.8826,VALID,103,VALID,0.661044,
2005-10-18, 00:54:01,VALID,919.554,VALID,0,VALID,100,VALID,-0.0679233,VALID,18.8726,VALID,105,VALID,0.729048,
2005-10-18, 00:55:00,VALID,919.522,VALID,0,VALID,100,VALID,-0.0509425,VALID,18.8655,VALID,108,VALID,0.687128,
2005-10-18, 00:56:01,VALID,919.487,VALID,0,VALID,100,VALID,-0.101885,VALID,18.8726,VALID,110,VALID,0.906622,
2005-10-18, 00:57:01,VALID,919.474,VALID,0,VALID,100,VALID,-0.101885,VALID,18.8754,VALID,110,VALID,0.826853,
2005-10-18, 00:58:01,VALID,919.445,VALID,0,VALID,100,VALID,-0.0679233,VALID,18.8756,VALID,109,VALID,0.649926,
2005-10-18, 00:59:00,VALID,919.419,VALID,0,VALID,100,VALID,-0.0849042,VALID,18.8826,VALID,110,VALID,0.881098,
2005-10-18, 01:00:01,VALID,919.392,VALID,0,VALID,100,VALID,-0.0509425,VALID,18.8791,VALID,108,VALID,0.792411,
2005-10-18, 01:01:00,VALID,919.37,VALID,0,VALID,100,VALID,-0.0849042,VALID,18.8888,VALID,108,VALID,0.90987,
2005-10-18, 01:02:01,VALID,919.351,VALID,0,VALID,100,VALID,-0.0849042,VALID,18.8791,VALID,106,VALID,1.07351,
2005-10-18, 01:03:01,VALID,919.323,VALID,0,VALID,100,VALID,-0.0679233,VALID,18.8726,VALID,106,VALID,1.07682,
2005-10-18, 01:04:01,VALID,919.295,VALID,0,VALID,100,VALID,-0.0509425,VALID,18.8722,VALID,106,VALID,0.935594,
2005-10-18, 01:05:01,VALID,919.266,VALID,0,VALID,100,VALID,-0.0849042,VALID,18.8662,VALID,108,VALID,0.786644,
2005-10-18, 01:06:01,VALID,919.255,VALID,0,VALID,100,VALID,-0.0679233,VALID,18.8791,VALID,107,VALID,0.394345,
2005-10-18, 01:07:01,VALID,919.228,VALID,0,VALID,100,VALID,-0.0849042,VALID,18.8756,VALID,107,VALID,0.0119048,
2005-10-18, 01:08:01,VALID,919.211,VALID,0,VALID,100,VALID,-0.0679233,VALID,18.8818,VALID,107,VALID,0.293423,
2005-10-18, 01:09:00,VALID,919.196,VALID,0,VALID,100,VALID,-0.0679233,VALID,18.8885,VALID,107,VALID,0.376488,
2005-10-18, 01:10:00,VALID,919.17,VALID,0,VALID,100,VALID,-0.0849042,VALID,18.8955,VALID,108,VALID,0.232422,
2005-10-18, 01:11:01,VALID,919.158,VALID,0,VALID,100,VALID,-0.101885,VALID,18.9086,VALID,108,VALID,0.460392,
2005-10-18, 01:12:01,VALID,919.126,VALID,0,VALID,100,VALID,-0.101885,VALID,18.895,VALID,108,VALID,0.35883,
2005-10-18, 01:13:01,VALID,919.115,VALID,0,VALID,100,VALID,-0.0509425,VALID,18.8848,VALID,96,VALID,0.572674,
2005-10-18, 01:14:01,VALID,919.087,VALID,0,VALID,100,VALID,-0.0849042,VALID,18.9044,VALID,93,VALID,0.45918,
2005-10-18, 01:15:01,VALID,919.06,VALID,0,VALID,100,VALID,-0.0509425,VALID,18.9047,VALID,104,VALID,0.914268,
2005-10-18, 01:16:01,VALID,919.036,VALID,0,VALID,100,VALID,-0.101885,VALID,18.8791,VALID,104,VALID,0.591844,
2005-10-18, 01:17:01,VALID,919.018,VALID,0,VALID,100,VALID,-0.101885,VALID,18.8823,VALID,109,VALID,0.739524,
2005-10-18, 01:18:01,VALID,919.013,VALID,0,VALID,100,VALID,-0.0849042,VALID,18.8927,VALID,109,VALID,0.371626,
2005-10-18, 01:19:01,VALID,919.004,VALID,0,VALID,100,VALID,-0.0849042,VALID,18.8897,VALID,86,VALID,0.447443,
2005-10-18, 01:20:01,VALID,918.997,VALID,0,VALID,100,VALID,-0.0679233,VALID,18.8793,VALID,50,VALID,0.32867,
2005-10-18, 01:21:01,VALID,918.986,VALID,0,VALID,100,VALID,-0.101885,VALID,18.8793,VALID,47,VALID,0.136819,
2005-10-18, 01:22:01,VALID,918.973,VALID,0,VALID,100,VALID,-0.101885,VALID,18.8699,VALID,47,VALID,0.0790816,
2005-10-18, 01:23:01,VALID,918.95,VALID,0,VALID,100,VALID,-0.0679233,VALID,18.8599,VALID,47,VALID,0.0112847,
2005-10-18, 01:24:01,VALID,918.922,VALID,0,VALID,100,VALID,-0.0509425,VALID,18.8599,VALID,47,VALID,0,
2005-10-18, 01:25:01,VALID,918.913,VALID,0,VALID,100,VALID,-0.0679233,VALID,18.8662,VALID,47,VALID,0,
2005-10-18, 01:26:01,VALID,918.904,VALID,0,VALID,100,VALID,-0.101885,VALID,18.8565,VALID,47,VALID,0,
2005-10-18, 01:27:01,VALID,918.903,VALID,0,VALID,100,VALID,-0.118866,VALID,18.8599,VALID,47,VALID,0,
2005-10-18, 01:28:01,VALID,918.879,VALID,0,VALID,100,VALID,-0.0849042,VALID,18.8662,VALID,47,VALID,0,
2005-10-18, 01:29:01,VALID,918.867,VALID,0,VALID,100,VALID,-0.0849042,VALID,18.85,VALID,47,VALID,0,
2005-10-18, 01:30:01,VALID,918.847,VALID,0,VALID,100,VALID,-0.0679233,VALID,18.8666,VALID,47,VALID,0,
2005-10-18, 01:31:00,VALID,918.827,VALID,0,VALID,100,VALID,-0.0509425,VALID,18.8431,VALID,47,VALID,0,
2005-10-18, 01:32:00,VALID,918.811,VALID,0,VALID,100,VALID,-0.0679233,VALID,18.8436,VALID,47,VALID,0,
2005-10-18, 01:33:00,VALID,918.794,VALID,0,VALID,100,VALID,-0.101885,VALID,18.8565,VALID,47,VALID,0,
2005-10-18, 01:34:00,VALID,918.776,VALID,0,VALID,100,VALID,-0.0679233,VALID,18.8595,VALID,36,VALID,0.153706,
2005-10-18, 01:35:00,VALID,918.761,VALID,0,VALID,100,VALID,-0.0509425,VALID,18.85,VALID,6,VALID,0.276101,
2005-10-18, 01:36:00,VALID,918.733,VALID,0,VALID,100,VALID,-0.0679233,VALID,18.8498,VALID,5,VALID,0.256316,
2005-10-18, 01:37:00,VALID,918.714,VALID,0,VALID,100,VALID,-0.0849042,VALID,18.847,VALID,358,VALID,0.358665,
2005-10-18, 01:38:00,VALID,918.701,VALID,0,VALID,100,VALID,-0.101885,VALID,18.8376,VALID,344,VALID,0.335938,
2005-10-18, 01:39:00,VALID,918.681,VALID,0,VALID,100,VALID,-0.101885,VALID,18.8306,VALID,293,VALID,0.284961,
2005-10-18, 01:40:00,VALID,918.656,VALID,0,VALID,100,VALID,-0.0849042,VALID,18.8343,VALID,275,VALID,0.417791,
2005-10-18, 01:41:00,VALID,918.637,VALID,0,VALID,100,VALID,-0.0509425,VALID,18.821,VALID,272,VALID,0.347202,
2005-10-18, 01:42:00,VALID,918.632,VALID,0,VALID,100,VALID,-0.0509425,VALID,18.8108,VALID,272,VALID,0.276677,
2005-10-18, 01:43:00,VALID,918.594,VALID,0,VALID,100,VALID,-0.0509425,VALID,18.8152,VALID,272,VALID,0.0273438,
2005-10-18, 01:44:00,VALID,918.579,VALID,0,VALID,100,VALID,-0.0849042,VALID,18.8177,VALID,272,VALID,0.070122,
2005-10-18, 01:45:00,VALID,918.568,VALID,0,VALID,100,VALID,-0.101885,VALID,18.8309,VALID,272,VALID,0.123884,
2005-10-18, 01:46:00,VALID,918.541,VALID,0,VALID,100,VALID,-0.0849042,VALID,18.8239,VALID,270,VALID,0.236235,
2005-10-18, 01:47:00,VALID,918.533,VALID,0,VALID,100,VALID,-0.0679233,VALID,18.8214,VALID,270,VALID,0.118924,
2005-10-18, 01:48:00,VALID,918.547,VALID,0,VALID,100,VALID,-0.0509425,VALID,18.8143,VALID,270,VALID,0.217383,
2005-10-18, 01:49:00,VALID,918.525,VALID,0,VALID,100,VALID,-0.0509425,VALID,18.8117,VALID,270,VALID,0.219658,
2005-10-18, 01:50:00,VALID,918.529,VALID,0,VALID,100,VALID,-0.101885,VALID,18.8018,VALID,270,VALID,0.0327744,
2005-10-18, 01:51:00,VALID,918.527,VALID,0,VALID,100,VALID,-0.101885,VALID,18.7914,VALID,270,VALID,0,
2005-10-18, 01:52:00,VALID,918.502,VALID,0,VALID,100,VALID,-0.0679233,VALID,18.7857,VALID,270,VALID,0.0463299,
2005-10-18, 01:53:00,VALID,918.502,VALID,0,VALID,100,VALID,-0.0509425,VALID,18.7757,VALID,269,VALID,0.322409,
2005-10-18, 01:54:00,VALID,918.485,VALID,0,VALID,100,VALID,-0.0849042,VALID,18.7603,VALID,174,VALID,0.512355,
2005-10-18, 01:55:00,VALID,918.47,VALID,0,VALID,100,VALID,-0.101885,VALID,18.7179,VALID,124,VALID,0.441315,
2005-10-18, 01:56:00,VALID,918.477,VALID,0,VALID,100,VALID,-0.101885,VALID,18.7077,VALID,124,VALID,0.449591,
2005-10-18, 01:57:00,VALID,918.457,VALID,0,VALID,100,VALID,-0.101885,VALID,18.7017,VALID,90,VALID,0.517187,
2005-10-18, 01:58:00,VALID,918.455,VALID,0,VALID,100,VALID,-0.0849042,VALID,18.6821,VALID,76,VALID,0.649891,
2005-10-18, 01:59:00,VALID,918.443,VALID,0,VALID,100,VALID,-0.0849042,VALID,18.6622,VALID,76,VALID,0.636905,
2005-10-18, 02:00:00,VALID,918.436,VALID,0,VALID,100,VALID,-0.0509425,VALID,18.662,VALID,75,VALID,0.568638,
2005-10-18, 02:01:00,VALID,918.419,VALID,0,VALID,100,VALID,-0.0679233,VALID,18.6789,VALID,75,VALID,0.593559,
2005-10-18, 02:02:00,VALID,918.404,VALID,0,VALID,100,VALID,-0.0679233,VALID,18.6523,VALID,58,VALID,0.737043,
2005-10-18, 02:03:00,VALID,918.376,VALID,0,VALID,100,VALID,0.0509425,VALID,18.6385,VALID,52,VALID,0.819196,
2005-10-18, 02:04:00,VALID,918.344,VALID,0,VALID,100,VALID,0.0679233,VALID,18.6124,VALID,51,VALID,0.758371,
2005-10-18, 02:05:00,VALID,918.314,VALID,0,VALID,100,VALID,0.0169808,VALID,18.6096,VALID,49,VALID,0.507068,
2005-10-18, 02:06:00,VALID,918.277,VALID,0,VALID,100,VALID,0.0169808,VALID,18.6002,VALID,53,VALID,0.446039,
2005-10-18, 02:07:00,VALID,918.254,VALID,0,VALID,100,VALID,0.0169808,VALID,18.6037,VALID,67,VALID,0.411719,
2005-10-18, 02:08:00,VALID,918.227,VALID,0,VALID,100,VALID,0.0169808,VALID,18.5905,VALID,77,VALID,0.561198,
2005-10-18, 02:09:00,VALID,918.205,VALID,0,VALID,100,VALID,0.0169808,VALID,18.5674,VALID,81,VALID,0.521949,
2005-10-18, 02:10:00,VALID,918.185,VALID,0,VALID,100,VALID,0,VALID,18.5647,VALID,92,VALID,0.750347,
2005-10-18, 02:11:00,VALID,918.177,VALID,0,VALID,100,VALID,0.0169808,VALID,18.5649,VALID,99,VALID,0.66183,
2005-10-18, 02:12:00,VALID,918.157,VALID,0,VALID,100,VALID,0.0509425,VALID,18.5582,VALID,87,VALID,0.709339,
2005-10-18, 02:13:00,VALID,918.151,VALID,0,VALID,100,VALID,0.0509425,VALID,18.5548,VALID,81,VALID,0.551962,
2005-10-18, 02:14:00,VALID,918.15,VALID,0,VALID,100,VALID,0.0509425,VALID,18.5483,VALID,81,VALID,0.223544,
2005-10-18, 02:15:00,VALID,918.14,VALID,0,VALID,100,VALID,0.0169808,VALID,18.549,VALID,81,VALID,0.201853,
2005-10-18, 02:16:00,VALID,918.125,VALID,0,VALID,100,VALID,0.0169808,VALID,18.5587,VALID,111,VALID,0.582698,
2005-10-18, 02:17:00,VALID,918.134,VALID,0,VALID,100,VALID,0.0169808,VALID,18.5647,VALID,132,VALID,0.534722,
2005-10-18, 02:18:00,VALID,918.131,VALID,0,VALID,100,VALID,0.0339617,VALID,18.5744,VALID,138,VALID,0.517708,
2005-10-18, 02:19:00,VALID,918.137,VALID,0,VALID,100,VALID,0.0339617,VALID,18.5942,VALID,138,VALID,0.492188,
2005-10-18, 02:20:00,VALID,918.135,VALID,0,VALID,100,VALID,0.0169808,VALID,18.5942,VALID,136,VALID,0.324041,
2005-10-18, 02:21:00,VALID,918.12,VALID,0,VALID,100,VALID,0.0169808,VALID,18.591,VALID,131,VALID,0.701079,
2005-10-18, 02:22:00,VALID,918.114,VALID,0,VALID,100,VALID,0.0169808,VALID,18.5977,VALID,134,VALID,0.513148,
2005-10-18, 02:23:00,VALID,918.099,VALID,0,VALID,100,VALID,0.0679233,VALID,18.5877,VALID,121,VALID,0.683689,
2005-10-18, 02:24:00,VALID,918.098,VALID,0,VALID,100,VALID,0.0339617,VALID,18.5806,VALID,107,VALID,0.751635,
2005-10-18, 02:25:00,VALID,918.082,VALID,0,VALID,100,VALID,0.0169808,VALID,18.5808,VALID,110,VALID,0.746652,
2005-10-18, 02:26:00,VALID,918.082,VALID,0,VALID,100,VALID,0.0339617,VALID,18.5811,VALID,112,VALID,0.457698,
2005-10-18, 02:27:00,VALID,918.069,VALID,0,VALID,100,VALID,0.0339617,VALID,18.5642,VALID,125,VALID,0.57066,
2005-10-18, 02:28:00,VALID,918.056,VALID,0,VALID,100,VALID,0,VALID,18.5847,VALID,139,VALID,0.700817,
2005-10-18, 02:29:00,VALID,918.054,VALID,0,VALID,100,VALID,0.0169808,VALID,18.5744,VALID,135,VALID,0.657738,
2005-10-18, 02:30:00,VALID,918.039,VALID,0,VALID,100,VALID,0.0339617,VALID,18.5781,VALID,137,VALID,0.778161,
2005-10-18, 02:31:00,VALID,918.031,VALID,0,VALID,100,VALID,0.0339617,VALID,18.5774,VALID,140,VALID,0.779344,
2005-10-18, 02:32:00,VALID,918.034,VALID,0,VALID,100,VALID,0.0509425,VALID,18.5741,VALID,158,VALID,0.693266,
2005-10-18, 02:33:00,VALID,918.023,VALID,0,VALID,100,VALID,-0.0339617,VALID,18.5691,VALID,159,VALID,0.522461,
2005-10-18, 02:34:00,VALID,918.004,VALID,0,VALID,100,VALID,-0.0849042,VALID,18.5665,VALID,155,VALID,0.620094,
2005-10-18, 02:35:00,VALID,917.999,VALID,0,VALID,100,VALID,-0.0509425,VALID,18.5432,VALID,144,VALID,0.791349,
2005-10-18, 02:36:00,VALID,917.997,VALID,0,VALID,100,VALID,-0.0169808,VALID,18.5432,VALID,141,VALID,0.724085,
2005-10-18, 02:37:00,VALID,918.002,VALID,0,VALID,100,VALID,-0.0849042,VALID,18.5631,VALID,141,VALID,0.235795,
2005-10-18, 02:38:00,VALID,918.009,VALID,0,VALID,100,VALID,-0.0169808,VALID,18.5529,VALID,145,VALID,0.578869,
2005-10-18, 02:39:00,VALID,918.01,VALID,0,VALID,100,VALID,-0.0509425,VALID,18.5462,VALID,139,VALID,0.70625,
2005-10-18, 02:40:00,VALID,918.014,VALID,0,VALID,100,VALID,-0.0679233,VALID,18.5368,VALID,139,VALID,0.507465,
2005-10-18, 02:41:00,VALID,918.019,VALID,0,VALID,100,VALID,-0.0169808,VALID,18.5335,VALID,135,VALID,0.757999,
2005-10-18, 02:42:00,VALID,918.027,VALID,0,VALID,100,VALID,-0.0679233,VALID,18.5402,VALID,145,VALID,0.385045,
2005-10-18, 02:43:00,VALID,918.038,VALID,0,VALID,100,VALID,-0.0849042,VALID,18.5303,VALID,128,VALID,0.244097,
2005-10-18, 02:44:00,VALID,918.047,VALID,0,VALID,100,VALID,-0.0339617,VALID,18.5172,VALID,124,VALID,0.296196,
2005-10-18, 02:45:00,VALID,918.039,VALID,0,VALID,100,VALID,-0.0679233,VALID,18.5079,VALID,89,VALID,0.604611,
2005-10-18, 02:46:00,VALID,918.025,VALID,0,VALID,100,VALID,-0.101885,VALID,18.5052,VALID,92,VALID,0.78561,
2005-10-18, 02:47:00,VALID,918.028,VALID,0,VALID,100,VALID,-0.0509425,VALID,18.4784,VALID,95,VALID,0.603906,
2005-10-18, 02:48:00,VALID,918.008,VALID,0,VALID,100,VALID,0.0169808,VALID,18.4807,VALID,94,VALID,0.712612,
2005-10-18, 02:49:00,VALID,918.01,VALID,0,VALID,100,VALID,0.0169808,VALID,18.4842,VALID,94,VALID,0.422852,
2005-10-18, 02:50:00,VALID,918.002,VALID,0,VALID,100,VALID,0,VALID,18.4676,VALID,98,VALID,0.458519,
2005-10-18, 02:51:00,VALID,917.993,VALID,0,VALID,100,VALID,0.0169808,VALID,18.4876,VALID,100,VALID,0.389717,
2005-10-18, 02:52:00,VALID,917.963,VALID,0,VALID,100,VALID,0.0169808,VALID,18.478,VALID,100,VALID,0.65904,
2005-10-18, 02:53:00,VALID,917.934,VALID,0,VALID,100,VALID,0.0339617,VALID,18.4807,VALID,92,VALID,1.1012,
2005-10-18, 02:54:00,VALID,917.923,VALID,0,VALID,100,VALID,0,VALID,18.478,VALID,95,VALID,1.11909,
2005-10-18, 02:55:00,VALID,917.91,VALID,0,VALID,100,VALID,0.0509425,VALID,18.4745,VALID,95,VALID,1.00365,
2005-10-18, 02:56:00,VALID,917.906,VALID,0,VALID,100,VALID,0.0339617,VALID,18.4683,VALID,95,VALID,0.660334,
2005-10-18, 02:57:00,VALID,917.895,VALID,0,VALID,100,VALID,0.0339617,VALID,18.4392,VALID,99,VALID,0.41059,
2005-10-18, 02:58:00,VALID,917.896,VALID,0,VALID,100,VALID,0.0169808,VALID,18.4293,VALID,87,VALID,0.628196,
2005-10-18, 02:59:00,VALID,917.899,VALID,0,VALID,100,VALID,0,VALID,18.4295,VALID,85,VALID,0.619048,
2005-10-18, 03:00:00,VALID,917.888,VALID,0,VALID,100,VALID,0,VALID,18.4392,VALID,86,VALID,0.779119,
2005-10-18, 03:01:00,VALID,917.884,VALID,0,VALID,100,VALID,0.0169808,VALID,18.4422,VALID,87,VALID,0.908008,
2005-10-18, 03:02:00,VALID,917.875,VALID,0,VALID,100,VALID,0,VALID,18.4362,VALID,86,VALID,0.783794,
2005-10-18, 03:03:00,VALID,917.871,VALID,0,VALID,100,VALID,-0.0679233,VALID,18.4046,VALID,73,VALID,0.681641,
2005-10-18, 03:04:00,VALID,917.879,VALID,0,VALID,100,VALID,-0.0849042,VALID,18.3852,VALID,50,VALID,0.473837,
2005-10-18, 03:05:00,VALID,917.896,VALID,0,VALID,100,VALID,-0.0679233,VALID,18.3596,VALID,45,VALID,0.199574,
2005-10-18, 03:06:00,VALID,917.903,VALID,0,VALID,100,VALID,-0.0509425,VALID,18.3564,VALID,327,VALID,0.441134,
2005-10-18, 03:07:00,VALID,917.906,VALID,0,VALID,100,VALID,-0.0849042,VALID,18.379,VALID,278,VALID,0.528232,
2005-10-18, 03:08:00,VALID,917.897,VALID,0,VALID,100,VALID,-0.101885,VALID,18.4311,VALID,267,VALID,0.375545,
2005-10-18, 03:09:00,VALID,917.889,VALID,0,VALID,100,VALID,-0.0849042,VALID,18.4503,VALID,267,VALID,0.107067,
2005-10-18, 03:10:00,VALID,917.871,VALID,0,VALID,100,VALID,-0.101885,VALID,18.4637,VALID,349,VALID,0.590666,
2005-10-18, 03:11:00,VALID,917.835,VALID,0,VALID,100,VALID,-0.118866,VALID,18.4667,VALID,38,VALID,1.07994,
2005-10-18, 03:12:00,VALID,917.809,VALID,0,VALID,100,VALID,-0.0679233,VALID,18.4538,VALID,33,VALID,1.53161,
2005-10-18, 03:13:00,VALID,917.81,VALID,0,VALID,100,VALID,-0.0849042,VALID,18.4178,VALID,36,VALID,1.55781,
2005-10-18, 03:14:00,VALID,917.803,VALID,0,VALID,100,VALID,-0.0679233,VALID,18.4182,VALID,24,VALID,1.25231,
2005-10-18, 03:15:00,VALID,917.819,VALID,0,VALID,100,VALID,-0.0849042,VALID,18.4016,VALID,322,VALID,0.930382,
2005-10-18, 03:16:00,VALID,917.814,VALID,0,VALID,100,VALID,-0.0849042,VALID,18.4341,VALID,261,VALID,1.05413,
2005-10-18, 03:17:00,VALID,917.833,VALID,0,VALID,100,VALID,-0.0679233,VALID,18.4436,VALID,270,VALID,0.948289,
2005-10-18, 03:18:00,VALID,917.827,VALID,0,VALID,100,VALID,0,VALID,18.4424,VALID,282,VALID,0.414825,
2005-10-18, 03:19:00,VALID,917.813,VALID,0,VALID,100,VALID,0,VALID,18.4491,VALID,282,VALID,0.0770089,
2005-10-18, 03:20:00,VALID,917.8,VALID,0,VALID,100,VALID,0,VALID,18.4521,VALID,10,VALID,0.65516,
2005-10-18, 03:21:00,VALID,917.808,VALID,0,VALID,100,VALID,0,VALID,18.4747,VALID,28,VALID,0.473704,
2005-10-18, 03:22:00,VALID,917.801,VALID,0,VALID,100,VALID,0.0169808,VALID,18.4713,VALID,28,VALID,0.0556176,
2005-10-18, 03:23:00,VALID,917.791,VALID,0,VALID,100,VALID,0,VALID,18.4973,VALID,28,VALID,0.0258557,
2005-10-18, 03:24:00,VALID,917.79,VALID,0,VALID,100,VALID,0,VALID,18.5036,VALID,28,VALID,0.00727983,
2005-10-18, 03:25:00,VALID,917.795,VALID,0,VALID,100,VALID,0.0169808,VALID,18.4973,VALID,28,VALID,0.17023,
2005-10-18, 03:26:00,VALID,917.788,VALID,0,VALID,100,VALID,0.0339617,VALID,18.504,VALID,28,VALID,0.21189,
2005-10-18, 03:27:00,VALID,917.801,VALID,0,VALID,100,VALID,0,VALID,18.4844,VALID,15,VALID,0.353924,
2005-10-18, 03:28:00,VALID,917.828,VALID,0,VALID,100,VALID,0,VALID,18.4846,VALID,311,VALID,0.589489,
2005-10-18, 03:29:00,VALID,917.844,VALID,0,VALID,100,VALID,0,VALID,18.4913,VALID,310,VALID,0.249805,
2005-10-18, 03:30:00,VALID,917.848,VALID,0,VALID,100,VALID,0,VALID,18.5013,VALID,1,VALID,0.529652,
2005-10-18, 03:31:00,VALID,917.844,VALID,0,VALID,100,VALID,0,VALID,18.4939,VALID,20,VALID,0.72516,
2005-10-18, 03:32:00,VALID,917.864,VALID,0,VALID,100,VALID,0,VALID,18.4973,VALID,26,VALID,0.427083,
2005-10-18, 03:33:00,VALID,917.883,VALID,0,VALID,100,VALID,0,VALID,18.4941,VALID,26,VALID,0.26944,
2005-10-18, 03:34:00,VALID,917.896,VALID,0,VALID,100,VALID,0.0169808,VALID,18.4943,VALID,325,VALID,0.458133,
2005-10-18, 03:35:00,VALID,917.893,VALID,0,VALID,100,VALID,0,VALID,18.4976,VALID,265,VALID,0.393169,
2005-10-18, 03:36:00,VALID,917.901,VALID,0,VALID,100,VALID,0,VALID,18.5269,VALID,265,VALID,0.240513,
2005-10-18, 03:37:00,VALID,917.894,VALID,0,VALID,100,VALID,0,VALID,18.546,VALID,265,VALID,0.151811,
2005-10-18, 03:38:00,VALID,917.9,VALID,0,VALID,100,VALID,-0.0339617,VALID,18.5398,VALID,266,VALID,0.213796,
2005-10-18, 03:39:00,VALID,917.888,VALID,0,VALID,100,VALID,0,VALID,18.5522,VALID,326,VALID,0.354106,
2005-10-18, 03:40:00,VALID,917.873,VALID,0,VALID,100,VALID,0,VALID,18.5714,VALID,335,VALID,0.289435,
2005-10-18, 03:41:00,VALID,917.873,VALID,0,VALID,100,VALID,0,VALID,18.5555,VALID,353,VALID,0.353693,